Simultaneous Nadir Overpasses (SNOs) Predictions

Prediction of SNOs between METOP-A and TERRA Satellite Orbit:

Table of predicted SNOs for the next 14.0 days since TLE Epoch: 11/6/2014
Index Date (METOP-A) Time (METOP-A) Lat,Lon (METOP-A) SZA (METOP-A ) Date (TERRA) Time (TERRA) Lat,Lon (TERRA) SZA (TERRA ) Distance(km) Time Diff (sec)
1 11/06/2014 14:35:55 81.30, 8.06 100.48 11/06/2014 14:36:47 81.29, 7.91 100.48 2.66 52
2 11/06/2014 15:26:35 -81.30, 175.68 79.48 11/06/2014 15:26:13 -81.30, 175.81 79.48 2.22 22
3 11/09/2014 10:10:20 81.30, 74.54 101.30 11/09/2014 10:10:57 81.30, 74.54 101.32 0.26 37
4 11/09/2014 11:01:00 -81.30,-117.80 78.66 11/09/2014 11:00:24 -81.29,-117.91 78.69 2.01 36
5 11/12/2014 05:44:44 81.30, 140.96 102.07 11/12/2014 05:45:06 81.30, 140.93 102.07 0.46 22
6 11/12/2014 06:35:24 -81.30, -51.34 77.88 11/12/2014 06:34:33 -81.29, -51.50 77.93 2.82 51
7 11/15/2014 01:19:09 81.30,-152.69 102.79 11/15/2014 01:19:15 81.30,-152.54 102.81 2.46 6
8 11/15/2014 02:09:49 -81.30, 15.05 77.16 11/15/2014 02:08:42 -81.30, 15.05 77.19 0.65 67
9 11/17/2014 20:02:54 -81.29, 106.08 76.58 11/17/2014 20:03:58 -81.29, 106.11 76.55 0.57 64




NCC Satellite Simultaneous Nadir Overpasses (SNOs) Prediction Service
